Location: Big Prairie
(40.6673°N, 82.0952°W)
Time: 01:23:40
(UTC+00:00)

Cosmos 841 Rocket - Pass Details

Date: 04 July 2022
Orbit: 745 x 772 km, 74.0° (Epoch: 15 August)

Event Time Altitude Azimuth Distance (km) Brightness Sun altitude
Exits shadow 08:09:28 20° 258° (WSW) 1,683 4.8 -16.8°
Maximum altitude 08:11:48 28° 299° (WNW) 1,386 4.7 -16.5°
Drops below altitude 10° 08:16:13 10° 358° (N) 2,283 6.7 -16.0°
Sets 08:18:56 0° 10° (N) 3,216 7.8 -15.7°
